When you browse on this site, cookies collect data to enhance your experience and personalize the content and advertising you see.
Visit our Privacy Policy to learn more. By continuing to use the site, you agree to this use of cookies and data.
  • In Hungary
  • List of Countries
  • For 7 days
  • Water Temperature
  • Weather Map
  • News
  • Weather Widgets
  • user-avatar
    Login

    Hourly Weather Cheremuhi

    Today, 20 October, Sunday

    Time Temperature Precipitation Wind Pressure Humidity
    00:00 +13°C° 0 mm 2 mps 760 mmHg 72%
    01:00 +13°C° 0 mm 2 mps 760 mmHg 73%
    02:00 +13°C° 0 mm 2 mps 760 mmHg 74%
    03:00 +12°C° 0 mm 2 mps 760 mmHg 75%
    04:00 +12°C° 0 mm 2 mps 761 mmHg 76%
    05:00 +12°C° 0 mm 2 mps 761 mmHg 77%
    06:00 +12°C° 0 mm 2 mps 761 mmHg 78%
    07:00 +12°C° 0 mm 3 mps 761 mmHg 72%
    08:00 +13°C° 0 mm 3 mps 762 mmHg 66%
    09:00 +16°C° 0 mm 3 mps 762 mmHg 61%
    10:00 +18°C° 0 mm 4 mps 762 mmHg 55%
    11:00 +19°C° 0 mm 4 mps 762 mmHg 49%
    12:00 +21°C° 0 mm 4 mps 762 mmHg 44%
    13:00 +21°C° 0 mm 4 mps 762 mmHg 43%
    14:00 +22°C° 0 mm 4 mps 762 mmHg 42%
    15:00 +22°C° 0 mm 4 mps 762 mmHg 41%
    16:00 +20°C° 0 mm 3 mps 762 mmHg 46%
    17:00 +19°C° 0 mm 3 mps 762 mmHg 52%
    18:00 +17°C° 0 mm 3 mps 762 mmHg 58%
    19:00 +16°C° 0 mm 3 mps 762 mmHg 61%
    20:00 +14°C° 0 mm 3 mps 762 mmHg 64%
    21:00 +14°C° 0 mm 3 mps 762 mmHg 66%
    22:00 +13°C° 0 mm 3 mps 762 mmHg 69%
    23:00 +13°C° 0 mm 3 mps 762 mmHg 73%

    Tomorrow, 21 October, Monday

    Time Temperature Precipitation Wind Pressure Humidity
    00:00 +12°C° 0 mm 3 mps 763 mmHg 76%
    01:00 +12°C° 0 mm 3 mps 763 mmHg 78%
    02:00 +12°C° 0 mm 3 mps 763 mmHg 81%
    03:00 +11°C° 0 mm 3 mps 763 mmHg 83%
    04:00 +11°C° 0 mm 3 mps 763 mmHg 82%
    05:00 +11°C° 0 mm 3 mps 763 mmHg 81%
    06:00 +10°C° 0 mm 3 mps 763 mmHg 80%
    07:00 +12°C° 0 mm 3 mps 763 mmHg 73%
    08:00 +13°C° 0 mm 3 mps 763 mmHg 66%
    09:00 +14°C° 0 mm 4 mps 764 mmHg 60%
    10:00 +17°C° 0 mm 4 mps 764 mmHg 54%
    11:00 +19°C° 0 mm 4 mps 763 mmHg 48%
    12:00 +20°C° 0 mm 4 mps 763 mmHg 43%
    13:00 +21°C° 0 mm 4 mps 763 mmHg 42%
    14:00 +21°C° 0 mm 4 mps 763 mmHg 40%
    15:00 +21°C° 0 mm 3 mps 762 mmHg 39%
    16:00 +19°C° 0 mm 3 mps 762 mmHg 44%
    17:00 +18°C° 0 mm 3 mps 762 mmHg 49%
    18:00 +16°C° 0 mm 3 mps 762 mmHg 54%
    19:00 +15°C° 0 mm 2 mps 762 mmHg 57%
    20:00 +14°C° 0 mm 2 mps 762 mmHg 59%
    21:00 +14°C° 0 mm 2 mps 762 mmHg 62%
    22:00 +13°C° 0 mm 2 mps 762 mmHg 63%
    23:00 +13°C° 0 mm 2 mps 762 mmHg 64%

    Day after tomorrow, 22 October, Tuesday

    Time Temperature Precipitation Wind Pressure Humidity
    00:00 +12°C° 0 mm 2 mps 762 mmHg 66%
    01:00 +12°C° 0 mm 2 mps 762 mmHg 67%
    02:00 +12°C° 0 mm 1 mps 762 mmHg 68%
    03:00 +11°C° 0 mm 1 mps 762 mmHg 70%
    04:00 +11°C° 0 mm 1 mps 762 mmHg 70%
    05:00 +11°C° 0 mm 1 mps 762 mmHg 70%
    06:00 +11°C° 0 mm 1 mps 762 mmHg 71%
    07:00 +12°C° 0 mm 1 mps 762 mmHg 66%
    08:00 +13°C° 0 mm 1 mps 762 mmHg 61%
    09:00 +15°C° 0 mm 1 mps 762 mmHg 56%
    10:00 +16°C° 0 mm 1 mps 762 mmHg 51%
    11:00 +19°C° 0 mm 1 mps 762 mmHg 46%
    12:00 +20°C° 0 mm 1 mps 762 mmHg 41%
    13:00 +21°C° 0 mm 1 mps 762 mmHg 39%
    14:00 +19°C° 0 mm 0 mps 762 mmHg 38%
    15:00 +20°C° 0 mm 0 mps 761 mmHg 36%
    16:00 +18°C° 0 mm 0 mps 761 mmHg 40%
    17:00 +17°C° 0 mm 0 mps 761 mmHg 44%
    18:00 +15°C° 0 mm 0 mps 761 mmHg 47%
    19:00 +15°C° 0 mm 0 mps 761 mmHg 49%
    20:00 +15°C° 0 mm 0 mps 761 mmHg 50%
    21:00 +14°C° 0 mm 0 mps 761 mmHg 52%
    22:00 +14°C° 0 mm 0 mps 761 mmHg 54%
    23:00 +13°C° 0 mm 0 mps 761 mmHg 55%

    23 October, Wednesday

    Time Temperature Precipitation Wind Pressure Humidity
    00:00 +14°C° 0 mm 1 mps 761 mmHg 57%
    01:00 +14°C° 0 mm 1 mps 761 mmHg 58%
    02:00 +13°C° 0 mm 1 mps 761 mmHg 60%
    03:00 +13°C° 0 mm 1 mps 761 mmHg 61%
    04:00 +13°C° 0 mm 1 mps 761 mmHg 62%
    05:00 +13°C° 0 mm 1 mps 761 mmHg 63%
    06:00 +11°C° 0 mm 0 mps 761 mmHg 65%
    07:00 +13°C° 0 mm 0 mps 761 mmHg 61%
    08:00 +14°C° 0 mm 0 mps 761 mmHg 58%
    09:00 +15°C° 0 mm 0 mps 762 mmHg 55%
    10:00 +18°C° 0 mm 1 mps 762 mmHg 51%
    11:00 +20°C° 0 mm 1 mps 761 mmHg 48%
    12:00 +21°C° 0 mm 1 mps 761 mmHg 45%
    13:00 +22°C° 0 mm 1 mps 761 mmHg 45%
    14:00 +22°C° 0 mm 1 mps 761 mmHg 45%
    15:00 +21°C° 0 mm 2 mps 761 mmHg 44%
    16:00 +20°C° 0 mm 2 mps 761 mmHg 50%
    17:00 +19°C° 0 mm 2 mps 761 mmHg 55%
    18:00 +17°C° 0 mm 2 mps 761 mmHg 61%
    19:00 +16°C° 0 mm 2 mps 761 mmHg 64%
    20:00 +16°C° 0 mm 2 mps 761 mmHg 67%
    21:00 +15°C° 0 mm 2 mps 761 mmHg 70%
    22:00 +15°C° 0 mm 2 mps 760 mmHg 72%
    23:00 +14°C° 0 mm 2 mps 760 mmHg 74%

    24 October, Thursday

    Time Temperature Precipitation Wind Pressure Humidity
    00:00 +14°C° 0 mm 2 mps 760 mmHg 76%
    01:00 +13°C° 0 mm 1 mps 760 mmHg 77%
    02:00 +13°C° 0 mm 1 mps 760 mmHg 77%
    03:00 +13°C° 0 mm 1 mps 760 mmHg 78%
    04:00 +12°C° 0 mm 1 mps 760 mmHg 78%
    05:00 +12°C° 0 mm 1 mps 760 mmHg 79%
    06:00 +12°C° 0 mm 1 mps 760 mmHg 79%
    07:00 +13°C° 0 mm 1 mps 760 mmHg 74%
    08:00 +14°C° 0 mm 1 mps 760 mmHg 68%
    09:00 +16°C° 0 mm 1 mps 760 mmHg 63%
    10:00 +18°C° 0 mm 1 mps 760 mmHg 57%
    11:00 +20°C° 0 mm 1 mps 760 mmHg 52%
    12:00 +20°C° 0 mm 2 mps 759 mmHg 47%
    13:00 +21°C° 0 mm 1 mps 759 mmHg 45%
    14:00 +22°C° 0 mm 1 mps 759 mmHg 43%
    15:00 +22°C° 0 mm 1 mps 759 mmHg 42%
    16:00 +21°C° 0 mm 1 mps 758 mmHg 45%
    17:00 +19°C° 0 mm 1 mps 758 mmHg 49%
    18:00 +18°C° 0 mm 1 mps 758 mmHg 53%
    19:00 +16°C° 0 mm 1 mps 758 mmHg 55%
    20:00 +16°C° 0 mm 2 mps 758 mmHg 57%
    21:00 +15°C° 0 mm 2 mps 758 mmHg 59%
    22:00 +14°C° 0 mm 2 mps 758 mmHg 60%
    23:00 +14°C° 0 mm 2 mps 758 mmHg 60%

    25 October, Friday

    Time Temperature Precipitation Wind Pressure Humidity
    00:00 +13°C° 0 mm 1 mps 758 mmHg 61%
    01:00 +13°C° 0 mm 1 mps 758 mmHg 62%
    02:00 +13°C° 0 mm 1 mps 758 mmHg 62%
    03:00 +12°C° 0 mm 1 mps 758 mmHg 63%
    04:00 +12°C° 0 mm 1 mps 758 mmHg 64%
    05:00 +12°C° 0 mm 1 mps 758 mmHg 65%
    06:00 +11°C° 0 mm 1 mps 758 mmHg 66%
    07:00 +13°C° 0 mm 1 mps 758 mmHg 62%
    08:00 +14°C° 0 mm 1 mps 758 mmHg 58%
    09:00 +15°C° 0 mm 1 mps 759 mmHg 54%
    10:00 +16°C° 0 mm 1 mps 759 mmHg 50%
    11:00 +19°C° 0 mm 1 mps 759 mmHg 45%
    12:00 +21°C° 0 mm 1 mps 759 mmHg 41%
    13:00 +21°C° 0 mm 1 mps 758 mmHg 40%
    14:00 +21°C° 0 mm 1 mps 758 mmHg 39%
    15:00 +20°C° 0 mm 0 mps 758 mmHg 38%
    16:00 +20°C° 0 mm 1 mps 758 mmHg 43%
    17:00 +19°C° 0 mm 1 mps 758 mmHg 47%
    18:00 +16°C° 0 mm 1 mps 758 mmHg 51%
    19:00 +16°C° 0 mm 1 mps 758 mmHg 54%
    20:00 +15°C° 0 mm 2 mps 758 mmHg 57%
    21:00 +14°C° 0 mm 2 mps 758 mmHg 60%
    22:00 +14°C° 0 mm 1 mps 758 mmHg 62%
    23:00 +13°C° 0 mm 1 mps 758 mmHg 63%
    Show more